EW5836 Weather Reports


Display with metric or nautical units.
time (UTC)temp
F
wind
direction
speed
MPH
gust
MPH
rain 1hr
in
rain 24hr
in
rain mn
in
humidity
%
barometer
mb
20260504050539 57 299 0.0 0.0 0.00 0.00 0.00 72 1017.7
20260504045530 57 299 0.0 0.0 0.00 0.00 0.00 72 1017.5
20260504045040 57 299 0.0 0.0 0.00 0.00 0.00 72 1017.6
20260504044545 57 299 0.0 0.0 0.00 0.00 0.00 70 1017.4
20260504044036 57 299 0.0 0.0 0.00 0.00 0.00 69 1017.3
20260504043539 57 299 0.0 0.0 0.00 0.00 0.00 68 1017.2
20260504043059 57 299 0.0 0.0 0.00 0.00 0.00 70 1017.3
20260504042534 57 299 0.0 0.0 0.00 0.00 0.00 67 1017.3
20260504042043 57 299 0.0 0.0 0.00 0.00 0.00 68 1017.2
20260504041549 58 299 0.0 0.0 0.00 0.00 0.00 67 1017.1
20260504041109 57 299 0.0 0.0 0.00 0.00 0.00 69 1017.2
20260504040550 57 299 0.0 0.0 0.00 0.00 0.00 69 1017.2
20260504040042 57 299 0.0 0.0 0.00 0.00 0.00 70 1017.2
20260504035547 57 299 0.0 0.0 0.00 0.00 0.00 70 1017.1
20260504035037 57 299 0.0 3.0 0.00 0.00 0.00 69 1017.1
20260504034541 57 299 1.0 3.0 0.00 0.00 0.00 68 1017.1
20260504034031 57 299 1.0 3.0 0.00 0.00 0.00 70 1017.1
20260504033557 57 299 0.0 4.0 0.00 0.00 0.00 70 1017.2
20260504033038 57 259 1.0 4.0 0.00 0.00 0.00 69 1017.4
20260504032542 57 286 0.0 0.0 0.00 0.00 0.00 69 1017.3
20260504032054 57 286 0.0 0.0 0.00 0.00 0.00 68 1017.2
20260504031539 57 286 0.0 0.0 0.00 0.00 0.00 69 1017.2
20260504031100 57 286 0.0 0.0 0.00 0.00 0.00 71 1017.2
20260504030533 57 286 0.0 0.0 0.00 0.00 0.00 72 1017.4
20260504030041 57 285 0.0 7.0 0.00 0.00 0.00 71 1017.4
20260504025545 57 257 2.0 7.0 0.00 0.00 0.00 69 1017.4
20260504025032 57 335 0.0 0.0 0.00 0.00 0.00 67 1017.3
20260504024535 57 335 0.0 0.0 0.00 0.00 0.00 70 1017.2
20260504024055 57 335 0.0 0.0 0.00 0.00 0.00 69 1017.4
20260504023532 57 335 0.0 0.0 0.00 0.00 0.00 68 1017.4
20260504023040 57 335 0.0 0.0 0.00 0.00 0.00 69 1017.3
20260504022542 57 335 0.0 0.0 0.00 0.00 0.00 70 1017.3
20260504022035 57 335 0.0 0.0 0.00 0.00 0.00 69 1017.3
20260504021541 57 335 0.0 0.0 0.00 0.00 0.00 69 1017.4
20260504021032 57 335 0.0 0.0 0.00 0.00 0.00 69 1017.4
20260504020534 58 335 0.0 0.0 0.00 0.00 0.00 69 1017.3
20260504020108 59 336 0.0 0.0 0.00 0.00 0.00 66 1017.4
20260504015550 58 336 0.0 0.0 0.00 0.00 0.00 65 1017.3
20260504015038 58 336 0.0 0.0 0.00 0.00 0.00 66 1017.3
20260504014542 58 336 0.0 0.0 0.00 0.00 0.00 68 1017.3
20260504014042 58 337 0.0 0.0 0.00 0.00 0.00 66 1017.3
20260504013547 58 341 0.0 0.0 0.00 0.00 0.00 68 1017.4
20260504013105 58 342 0.0 0.0 0.00 0.00 0.00 65 1017.4
20260504012605 59 342 0.0 0.0 0.00 0.00 0.00 63 1017.3
20260504012037 59 342 0.0 0.0 0.00 0.00 0.00 61 1017.4
20260504011543 59 342 0.0 0.0 0.00 0.00 0.00 61 1017.4
20260504011033 59 342 0.0 0.0 0.00 0.00 0.00 64 1017.4
20260504010536 58 342 0.0 0.0 0.00 0.00 0.00 64 1017.5
20260504010031 58 342 0.0 0.0 0.00 0.00 0.00 65 1017.6
20260504005535 58 342 0.0 0.0 0.00 0.00 0.00 67 1017.6
20260504005044 58 342 0.0 0.0 0.00 0.00 0.00 67 1017.5
20260504004535 59 342 0.0 0.0 0.00 0.00 0.00 65 1017.5
20260504004047 59 342 0.0 0.0 0.00 0.00 0.00 59 1017.4
20260504003552 59 342 0.0 0.0 0.00 0.00 0.00 57 1017.3
20260504003039 59 342 0.0 0.0 0.00 0.00 0.00 61 1017.3
20260504002542 59 342 0.0 0.0 0.00 0.00 0.00 61 1017.4
20260504002041 59 343 0.0 0.0 0.00 0.00 0.00 60 1017.6
20260504001601 59 343 0.0 0.0 0.00 0.00 0.00 65 1017.6
20260504001031 60 343 0.0 0.0 0.00 0.00 0.00 66 1017.6
20260504000536 60 343 0.0 0.0 0.00 0.00 0.00 62 1017.7
20260504000041 60 343 0.0 0.0 0.00 0.00 0.00 60 1017.7
20260503235544 60 343 0.0 0.0 0.00 0.00 0.00 61 1017.7
20260503235056 59 342 0.0 0.0 0.00 0.00 0.00 64 1017.7
20260503234532 60 343 0.0 0.0 0.00 0.00 0.00 66 1017.8
20260503234044 60 342 0.0 0.0 0.00 0.00 0.00 68 1017.9
20260503233548 61 343 0.0 0.0 0.00 0.00 0.00 65 1017.9
20260503233039 60 343 0.0 0.0 0.00 0.00 0.00 62 1017.9
20260503232604 60 343 0.0 0.0 0.00 0.00 0.00 62 1018.0
20260503232037 60 343 0.0 0.0 0.00 0.00 0.00 66 1018.0
20260503231543 60 343 0.0 0.0 0.00 0.00 0.00 66 1018.1
20260503231039 60 343 0.0 0.0 0.00 0.00 0.00 66 1018.3
20260503230543 60 343 0.0 0.0 0.00 0.00 0.00 66 1018.3
20260503230103 61 342 0.0 0.0 0.00 0.00 0.00 65 1018.3
20260503225533 60 343 0.0 0.0 0.00 0.00 0.00 64 1018.3
20260503225042 60 343 0.0 0.0 0.00 0.00 0.00 63 1018.3
20260503224546 60 342 0.0 0.0 0.00 0.00 0.00 64 1018.3
20260503224037 60 342 0.0 0.0 0.00 0.00 0.00 64 1018.3
20260503223542 60 343 0.0 0.0 0.00 0.00 0.00 65 1018.3
20260503223049 60 342 0.0 0.0 0.00 0.00 0.00 67 1018.4
20260503222544 60 342 0.0 0.0 0.00 0.00 0.00 67 1018.4
20260503222036 60 342 0.0 0.0 0.00 0.00 0.00 67 1018.4
20260503221539 60 343 0.0 0.0 0.00 0.00 0.00 67 1018.4
20260503221057 60 343 0.0 0.0 0.00 0.00 0.00 66 1018.4
20260503220600 60 342 0.0 0.0 0.00 0.00 0.00 67 1018.4
20260503220043 60 342 0.0 0.0 0.00 0.00 0.00 68 1018.3
20260503215537 60 342 0.0 0.0 0.00 0.00 0.00 68 1018.3
20260503215058 60 343 0.0 0.0 0.00 0.00 0.00 69 1018.3
20260503214536 60 343 0.0 0.0 0.00 0.00 0.00 66 1018.3
20260503214047 60 343 0.0 0.0 0.00 0.00 0.00 68 1018.3
20260503213610 60 343 0.0 0.0 0.00 0.00 0.00 68 1018.3
20260503213040 60 343 0.0 0.0 0.00 0.00 0.00 68 1018.3
20260503212545 60 343 0.0 0.0 0.00 0.00 0.00 69 1018.3
20260503212037 61 343 0.0 0.0 0.00 0.00 0.00 68 1018.3
20260503211542 61 343 0.0 0.0 0.00 0.00 0.00 67 1018.2
20260503211050 61 343 0.0 0.0 0.00 0.00 0.00 66 1018.3
20260503210554 61 343 0.0 0.0 0.00 0.00 0.00 67 1018.2
20260503210044 62 343 0.0 0.0 0.00 0.00 0.00 66 1018.2
20260503205549 62 343 0.0 0.0 0.00 0.00 0.00 65 1018.3
20260503205038 62 343 0.0 0.0 0.00 0.00 0.00 63 1018.2
20260503204542 62 343 0.0 0.0 0.00 0.00 0.00 63 1018.2
20260503204036 62 342 0.0 0.0 0.00 0.00 0.00 63 1018.2
20260503203542 62 343 0.0 0.0 0.00 0.00 0.00 64 1018.2
20260503203039 62 343 0.0 0.0 0.00 0.00 0.00 62 1018.3
20260503202601 63 342 0.0 0.0 0.00 0.00 0.00 59 1018.3
20260503202032 63 343 0.0 0.0 0.00 0.00 0.00 59 1018.2
20260503201537 63 342 0.0 0.0 0.00 0.00 0.00 59 1018.2
20260503201046 63 343 0.0 0.0 0.00 0.00 0.00 59 1018.2
20260503200550 64 343 0.0 0.0 0.00 0.00 0.00 58 1018.2
20260503200040 64 343 0.0 0.0 0.00 0.00 0.00 56 1018.2
20260503195545 63 342 0.0 0.0 0.00 0.00 0.00 56 1018.2
20260503195038 63 342 0.0 0.0 0.00 0.00 0.00 58 1018.1
20260503194542 64 342 0.0 0.0 0.00 0.00 0.00 58 1018.1
20260503194036 64 342 0.0 0.0 0.00 0.00 0.00 57 1018.1
20260503193557 65 343 0.0 0.0 0.00 0.00 0.00 56 1018.0
20260503193055 65 343 0.0 0.0 0.00 0.00 0.00 56 1018.0
20260503192532 65 342 0.0 0.0 0.00 0.00 0.00 55 1018.0
20260503192045 65 343 0.0 0.0 0.00 0.00 0.00 56 1017.9
20260503191549 65 343 0.0 0.0 0.00 0.00 0.00 56 1017.9
20260503191039 65 343 0.0 0.0 0.00 0.00 0.00 57 1017.9
20260503190544 65 343 0.0 0.0 0.00 0.00 0.00 58 1017.8
20260503190036 65 343 0.0 0.0 0.00 0.00 0.00 62 1017.8
20260503185552 65 343 0.0 0.0 0.00 0.00 0.00 62 1017.7
20260503185042 65 343 0.0 0.0 0.00 0.00 0.00 63 1017.7
20260503184547 65 343 0.0 0.0 0.00 0.00 0.00 64 1017.7
20260503184037 65 342 0.0 0.0 0.00 0.00 0.00 65 1017.6
20260503183543 66 343 0.0 0.0 0.00 0.00 0.00 65 1017.7
20260503183035 66 342 0.0 0.0 0.00 0.00 0.00 63 1017.6
20260503182559 66 343 0.0 0.0 0.00 0.00 0.00 62 1017.5
20260503182049 66 342 0.0 0.0 0.00 0.00 0.00 62 1017.4
20260503181534 66 343 0.0 0.0 0.00 0.00 0.00 61 1017.4
20260503181039 66 343 0.0 0.0 0.00 0.00 0.00 62 1017.3
20260503180544 67 343 0.0 0.0 0.00 0.00 0.00 60 1017.3
20260503180035 67 343 0.0 0.0 0.00 0.00 0.00 59 1017.3
20260503175538 68 343 0.0 0.0 0.00 0.00 0.00 58 1017.3
20260503175059 68 343 0.0 0.0 0.00 0.00 0.00 58 1017.2
20260503174535 68 343 0.0 0.0 0.00 0.00 0.00 58 1017.2
20260503174044 68 343 0.0 0.0 0.00 0.00 0.00 57 1017.3
20260503173549 69 343 0.0 0.0 0.00 0.00 0.00 57 1017.3
20260503173042 69 4 0.0 0.0 0.00 0.00 0.00 56 1017.4
20260503172546 69 4 0.0 0.0 0.00 0.00 0.00 56 1017.4
20260503172037 69 18 0.0 0.0 0.00 0.00 0.00 56 1017.5
20260503171530 69 43 0.0 0.0 0.00 0.00 0.00 55 1017.5
20260503171038 69 43 0.0 0.0 0.00 0.00 0.00 54 1017.5
20260503170545 69 43 0.0 0.0 0.00 0.00 0.00 54 1017.5
20260503150606 69 141 0.0 0.0 0.00 0.00 0.00 53 1017.9
20260503131043 70 129 0.0 0.0 0.00 0.00 0.00 52 1019.0
20260503130548 70 129 0.0 0.0 0.00 0.00 0.00 53 1019.0
20260503110544 68 167 0.0 7.0 0.00 0.00 0.00 55 1019.5
20260503081547 64 156 0.0 0.0 0.00 0.00 0.00 70 1020.1
20260503081054 64 156 0.0 0.0 0.00 0.00 0.00 69 1020.0
20260503080538 64 156 0.0 0.0 0.00 0.00 0.00 67 1020.0